Flag for Germany Weather past 2 weeks in Koblenz, Rhineland-Palatinate, Germany

Now
32 °F

Chilly.


Feels Like: 26 °F
Forecast: 30 / 39 °F
Wind: 7 mph from Southwest

Location: Buechel

Current Time: Jan 30, 2015 at 2:02:16 AM

Latest Report: Jan 30, 2015 at 1:20 AM


Visibility: 2 mi

Pressure: 28.68 "Hg

Humidity: 93%

Dew point: 30 °F

Location of KoblenzLocation

Historic Weather in Koblenz — Graph

°F

Koblenz temperature yesterday

Maximum temperature yesterday: 34 °F (at 2:00 PM)
Minimum temperature yesterday: 28 °F (at 3:20 AM)
Average temperature yesterday: 31 °F

Past Weeks' High & Low Weather Summary

 TemperatureHumidityPressure
High46 °F (Jan 15, 3:20 PM)100% (Jan 16, 6:20 AM)30.39 "Hg (Jan 16, 6:20 AM)
Low23 °F (Jan 23, 11:20 PM)66% (Jan 15, 3:20 PM)28.68 "Hg (Jan 30, 12:20 AM)
Average32 °F91%29.88 "Hg
* Reported Jan 15 12:20 AM — Jan 30 12:20 AM, Koblenz, Weather by CustomWeather, © 2014

Note: Actual official high and low records may vary slightly from our data, if they occured in-between our weather recording intervals... More about our weather records

Advertising

Koblenz weather history for previous 24 hours

 ConditionsComfort  
Time TempWeatherWind HumidityBarometerVisibility
12:20 AM
Jan 30
32 °FChilly.8 mph93%28.68 "Hg2 mi
11:20 PM
Jan 29
32 °FChilly.7 mph100%28.71 "Hg1 mi
10:20 PM32 °FChilly.5 mph100%28.74 "Hg1 mi
9:20 PM32 °FChilly.8 mph100%28.77 "Hg1 mi
8:20 PM32 °FChilly.5 mph100%28.82 "Hg1 mi
7:20 PM32 °FChilly.8 mph100%28.85 "Hg1 mi
6:20 PM32 °FChilly.13 mph100%28.88 "Hg1 mi
5:57 PM32 °FSnow. Ice fog.14 mph100%28.91 "Hg1 mi
5:20 PM32 °FSnow. Ice fog.13 mph100%28.94 "Hg1 mi
4:45 PM32 °FHeavy snow. Fog.12 mph100%28.97 "Hg1 mi
4:20 PM34 °FLight snow. Fog.13 mph93%29.00 "Hg2 mi
3:20 PM34 °FLight snow. Partly sunny.13 mph93%29.03 "HgN/A
2:20 PM32 °FLight snow. Ice fog.12 mph100%29.09 "Hg3 mi
2:00 PM34 °FLight snow. Fog.13 mph87%29.12 "Hg2 mi
1:20 PM32 °FPartly sunny.15 mph93%29.15 "Hg4 mi
1:03 PM32 °FIce fog.13 mph93%29.15 "Hg2 mi
12:20 PM32 °FLight snow. Ice fog.12 mph93%29.21 "Hg1 mi
11:20 AM32 °FLight snow. Ice fog.12 mph93%29.24 "Hg1 mi
10:20 AM30 °FSnow flurries. Ice fog.12 mph100%29.27 "Hg2 mi
9:20 AM30 °FLight snow. Ice fog.13 mph93%29.30 "Hg1 mi
8:20 AM30 °FLight snow. Ice fog.14 mph93%29.33 "Hg1 mi
7:20 AM30 °FLight snow. Ice fog.14 mph93%29.36 "Hg3 mi
7:01 AM30 °FPartly cloudy.14 mph93%29.36 "HgN/A
6:20 AM30 °FPartly cloudy.13 mph93%29.39 "HgN/A
5:56 AM30 °FPartly cloudy.13 mph93%29.39 "HgN/A
5:20 AM28 °FPassing clouds.12 mph93%29.42 "HgN/A
4:20 AM28 °FPassing clouds.10 mph93%29.45 "HgN/A
3:20 AM28 °FChilly.12 mph93%29.47 "HgN/A
2:20 AM30 °FChilly.10 mph86%29.47 "HgN/A
Weather by CustomWeather, © 2014

See weather overviewHow to use our weather pages